Back to catalog

THOR ABLESTAR DEB

AliveLEO
NORAD 19293·DEBRIS·🇺🇸 United States

Launched Jun 29, 1961 from Cape Canaveral Space Force Station

Loading…

Next Passes (next 24 hours)

TLE

AgingSource: Space-Track

Epoch: Sep 11, 2026, 21:25 UTC

1 19293U 61015MA  26254.89282021  .00000598  00000-0  13744-2 0  9991
2 19293  66.9852  67.3381 0334750 143.6361   5.5582 13.12749002839112

Track THOR ABLESTAR DEB in real time with AllMySat

Download on the App Store